LZ3DJ-10 Weather Reports


time (UTC)temp
F
wind
direction
speed
knots
gust
knots
rain 1hr
in
rain 24hr
in
rain mn
in
humidity
%
barometer
mb
20260902161505 84 0.0 0.0 0.00 0.00 0.00 39 1011.8
20260902160008 85 0.0 0.0 0.00 0.00 0.00 38 1011.6
20260902154505 86 331 0.0 0.9 0.00 0.00 0.00 37 1011.4
20260902153006 87 0.0 0.0 0.00 0.00 0.00 36 1011.1
20260902151505 88 340 0.0 0.9 0.00 0.00 0.00 35 1011.0
20260902150005 89 0.0 0.0 0.00 0.00 0.00 35 1010.8
20260902144505 91 326 0.0 1.7 0.00 0.00 0.00 34 1010.6
20260902143005 94 0.0 0.0 0.00 0.00 0.00 33 1010.3
20260902141505 95 128 0.0 0.9 0.00 0.00 0.00 32 1010.2
20260902140005 95 341 0.0 0.9 0.00 0.00 0.00 33 1010.3
20260902134506 96 0.0 0.0 0.00 0.00 0.00 28 1010.2
20260902133005 94 321 0.9 1.7 0.00 0.00 0.00 30 1010.6
20260902131506 93 322 0.0 0.9 0.00 0.00 0.00 30 1010.9
20260902130006 100 333 0.0 1.7 0.00 0.00 0.00 27 1010.2
20260902124505 98 341 0.0 0.9 0.00 0.00 0.00 29 1010.4
20260902123006 95 322 0.0 1.7 0.00 0.00 0.00 31 1011.0
20260902121505 94 312 0.9 1.7 0.00 0.00 0.00 32 1011.3
20260902120006 95 326 0.9 4.3 0.00 0.00 0.00 33 1011.6
20260902114505 94 326 0.0 1.7 0.00 0.00 0.00 34 1012.0
20260902113006 94 326 0.0 1.7 0.00 0.00 0.00 35 1012.1
20260902111505 92 325 0.9 4.3 0.00 0.00 0.00 38 1012.5
20260902110007 90 326 0.9 2.6 0.00 0.00 0.00 39 1013.0
20260902104506 89 320 0.9 1.7 0.00 0.00 0.00 39 1013.2
20260902103005 90 328 0.9 2.6 0.00 0.00 0.00 40 1013.3
20260902101506 88 326 0.0 1.7 0.00 0.00 0.00 41 1013.6
20260902100006 87 330 0.0 0.9 0.00 0.00 0.00 42 1013.9
20260902094506 88 131 0.9 2.6 0.00 0.00 0.00 42 1014.0
20260902093005 86 55 0.0 0.9 0.00 0.00 0.00 44 1014.2
20260902091505 85 327 0.0 0.9 0.00 0.00 0.00 45 1014.5
20260902090005 84 328 0.0 1.7 0.00 0.00 0.00 46 1014.7
20260902084506 81 124 0.9 1.7 0.00 0.00 0.00 47 1015.0
20260902083006 78 327 0.9 2.6 0.00 0.00 0.00 51 1015.4
20260902081505 78 0.0 0.0 0.00 0.00 0.00 50 1015.6
20260902080006 77 318 0.9 1.7 0.00 0.00 0.00 50 1015.9
20260902074505 77 326 0.9 4.3 0.00 0.00 0.00 51 1015.9
20260902073006 76 326 0.9 4.3 0.00 0.00 0.00 51 1016.0
20260902071506 75 330 0.9 2.6 0.00 0.00 0.00 52 1016.1
20260902070007 75 326 0.0 1.7 0.00 0.00 0.00 53 1016.2
20260902064506 74 328 0.9 1.7 0.00 0.00 0.00 53 1016.2
20260902063005 73 329 0.9 4.3 0.00 0.00 0.00 53 1016.1
20260902061505 73 319 0.0 0.9 0.00 0.00 0.00 55 1016.2
20260902060005 72 325 0.0 0.9 0.00 0.00 0.00 55 1016.3
20260902054505 72 326 0.9 2.6 0.00 0.00 0.00 55 1016.4
20260902053005 72 0.0 0.0 0.00 0.00 0.00 56 1016.4
20260902051505 71 315 0.0 1.7 0.00 0.00 0.00 57 1016.4
20260902050008 71 326 0.0 1.7 0.00 0.00 0.00 58 1016.4
20260902044505 71 325 0.9 1.7 0.00 0.00 0.00 58 1016.3
20260902043005 71 333 0.0 1.7 0.00 0.00 0.00 59 1016.2
20260902041505 71 0.0 0.0 0.00 0.00 0.00 61 1016.2
20260902040006 71 329 0.0 0.9 0.00 0.00 0.00 61 1016.2
20260902034505 71 326 0.0 2.6 0.00 0.00 0.00 60 1016.1
20260902033005 71 331 0.0 1.7 0.00 0.00 0.00 60 1016.1
20260902031505 72 328 0.0 1.7 0.00 0.00 0.00 60 1016.0
20260902030006 72 328 0.0 1.7 0.00 0.00 0.00 60 1015.9
20260902024506 72 293 0.0 0.9 0.00 0.00 0.00 61 1015.9
20260902023005 72 0.0 0.0 0.00 0.00 0.00 62 1015.9
20260902021505 72 0.0 0.0 0.00 0.00 0.00 61 1015.8
20260902020005 72 333 0.9 1.7 0.00 0.00 0.00 60 1015.9
20260902014505 72 330 0.9 2.6 0.00 0.00 0.00 61 1016.0
20260902013005 73 329 0.9 5.2 0.00 0.00 0.00 57 1015.8
20260902011505 73 324 0.0 1.7 0.00 0.00 0.00 57 1015.8
20260902010005 73 331 1.7 4.3 0.00 0.00 0.00 57 1016.0
20260902004506 73 325 0.9 2.6 0.00 0.00 0.00 60 1015.9
20260902003005 73 337 1.7 4.3 0.00 0.00 0.00 61 1015.7
20260902001505 73 321 0.9 4.3 0.00 0.00 0.00 62 1015.5
20260902000005 74 328 0.9 4.3 0.00 0.00 0.00 61 1015.4
20260901234506 74 329 0.9 2.6 0.00 0.00 0.00 60 1015.4
20260901233005 74 0.0 0.0 0.00 0.00 0.00 60 1015.3
20260901231506 74 333 0.0 0.9 0.00 0.00 0.00 60 1015.4
20260901230005 74 328 0.0 1.7 0.00 0.00 0.00 60 1015.5
20260901224506 73 334 0.0 0.9 0.00 0.00 0.00 62 1015.6
20260901223006 73 0.0 0.0 0.00 0.00 0.00 64 1015.5
20260901221506 73 0.0 0.0 0.00 0.00 0.00 64 1015.4
20260901220005 73 0.0 0.0 0.00 0.00 0.00 63 1015.4
20260901214505 73 0.0 0.0 0.00 0.00 0.00 63 1015.2
20260901213005 74 0.0 0.0 0.00 0.00 0.00 62 1015.0
20260901211506 75 0.0 0.0 0.00 0.00 0.00 59 1014.8
20260901210005 75 147 0.0 0.9 0.00 0.00 0.00 59 1014.8
20260901204506 75 0.0 0.0 0.00 0.00 0.00 60 1014.7
20260901203005 76 0.0 0.0 0.00 0.00 0.00 56 1014.5
20260901201505 76 145 0.0 1.7 0.00 0.00 0.00 59 1014.6
20260901200005 76 0.0 0.0 0.00 0.00 0.00 59 1014.5
20260901194506 77 0.0 0.0 0.00 0.00 0.00 58 1014.4
20260901193005 78 0.0 0.0 0.00 0.00 0.00 54 1014.4
20260901191506 79 0.0 0.0 0.00 0.00 0.00 54 1014.4
20260901190005 79 0.0 0.0 0.00 0.00 0.00 53 1014.3
20260901184505 80 0.0 0.0 0.00 0.00 0.00 52 1014.0
20260901183005 80 0.0 0.0 0.00 0.00 0.00 51 1013.8
20260901181505 81 0.0 0.0 0.00 0.00 0.00 49 1013.6
20260901180006 81 0.0 0.0 0.00 0.00 0.00 49 1013.3
20260901174505 81 0.0 0.0 0.00 0.00 0.00 50 1013.0
20260901173005 82 0.0 0.0 0.00 0.00 0.00 48 1012.6
20260901171505 83 0.0 0.0 0.00 0.00 0.00 48 1012.3
20260901170006 84 0.0 0.0 0.00 0.00 0.00 47 1012.1
20260901164506 85 0.0 0.0 0.00 0.00 0.00 46 1011.8
20260901163005 86 0.0 0.0 0.00 0.00 0.00 45 1011.5